Temp
-13 -13 -13 -13 -13 -13 -13 -13 -13 -14 -14 -14 -14 -14 -14 -14 -13 -13 -13 -13 -13 -13 -13 -13 -13 -13 -13 -13 -13 -13 -13 -13 -12 -12 -12 -12 -12 -12 -13 -14 -14 -14 -15 -15 -15 -15 -14
-13 -13 -13 -13 -13 -13 -14 -14 -14 -14 -15 -15 -14 -14 -14 -14 -14 -14 -13 -13 -13 -13 -13 -13 -14 -14 -14 -13 -13 -14 -14 -13 -13 -13 -13 -14 -14 -15 -16 -17 -17 -17 -17 -17 -17 -17 -17
-13 -14 -14 -14 -14 -14 -14 -14 -15 -15 -15 -15 -15 -15 -15 -14 -14 -14 -14 -14 -14 -13 -13 -13 -14 -14 -14 -14 -14 -14 -14 -14 -14 -15 -15 -15 -16 -17 -18 -18 -18 -18 -18 -17 -18 -18 -18
-14 -14 -14 -14 -14 -15 -15 -15 -15 -15 -15 -15 -15 -15 -15 -15 -15 -14 -14 -14 -14 -14 -14 -14 -14 -14 -14 -14 -14 -14 -14 -15 -15 -16 -16 -16 -17 -18 -19 -19 -19 -18 -18 -18 -20 -18 -18
-14 -14 -14 -14 -15 -15 -15 -15 -15 -15 -15 -15 -15 -15 -15 -15 -15 -15 -15 -14 -14 -14 -14 -14 -14 -14 -14 -14 -14 -15 -15 -15 -16 -16 -17 -17 -17 -18 -19 -19 -19 -19 -19 -19 -19 -19 -19
-14 -14 -14 -14 -15 -15 -15 -15 -15 -15 -15 -15 -15 -15 -15 -15 -15 -15 -15 -15 -15 -14 -14 -14 -14 -14 -15 -15 -15 -15 -15 -16 -16 -16 -17 -17 -18 -19 -19 -19 -19 -19 -19 -19 -19 -20 -20
-14 -14 -14 -14 -14 -15 -15 -15 -15 -15 -16 -15 -15 -15 -15 -15 -15 -15 -15 -15 -15 -15 -15 -14 -14 -14 -15 -15 -15 -15 -15 -16 -17 -17 -17 -17 -18 -19 -20 -19 -19 -19 -19 -19 -20 -21 -20
-15 -15 -14 -14 -14 -14 -15 -15 -15 -15 -15 -16 -16 -16 -16 -16 -15 -15 -15 -15 -15 -15 -15 -15 -15 -15 -15 -15 -15 -15 -15 -16 -17 -17 -17 -18 -19 -19 -19 -19 -19 -19 -19 -19 -20 -21 -20
-14 -14 -15 -15 -15 -15 -15 -15 -15 -15 -15 -15 -16 -16 -16 -16 -16 -16 -16 -15 -15 -15 -15 -15 -15 -15 -15 -15 -15 -15 -15 -16 -17 -17 -18 -18 -19 -19 -19 -20 -19 -20 -19 -20 -20 -20 -21
-14 -14 -15 -15 -15 -15 -15 -15 -15 -15 -15 -15 -15 -16 -16 -16 -16 -16 -16 -16 -16 -15 -15 -15 -15 -15 -15 -15 -15 -15 -16 -16 -17 -17 -18 -18 -18 -19 -19 -19 -19 -20 -20 -20 -20 -20 -20
-14 -14 -14 -15 -15 -15 -15 -15 -15 -15 -15 -15 -15 -15 -15 -16 -16 -16 -16 -16 -16 -16 -15 -15 -15 -15 -15 -16 -16 -16 -16 -16 -17 -18 -18 -18 -18 -19 -19 -19 -19 -19 -19 -20 -20 -20 -21
-14 -15 -14 -14 -15 -15 -16 -16 -16 -15 -15 -15 -15 -15 -15 -15 -15 -15 -15 -16 -16 -16 -16 -16 -16 -16 -16 -16 -16 -16 -16 -16 -17 -18 -18 -19 -19 -19 -19 -19 -19 -20 -20 -20 -20 -21 -21
-14 -14 -14 -14 -14 -15 -15 -16 -17 -17 -16 -15 -15 -15 -15 -15 -15 -15 -15 -15 -15 -16 -16 -16 -16 -16 -15 -16 -16 -16 -16 -16 -17 -17 -17 -19 -19 -19 -19 -19 -19 -19 -20 -20 -20 -20 -20
-14 -13 -13 -14 -14 -15 -15 -16 -17 -17 -17 -16 -15 -15 -15 -15 -15 -15 -15 -15 -15 -15 -16 -16 -16 -16 -16 -16 -16 -16 -17 -17 -17 -17 -17 -18 -18 -19 -19 -19 -19 -20 -20 -20 -20 -20 -20
-14 -13 -13 -13 -14 -15 -15 -16 -16 -18 -18 -17 -16 -16 -15 -15 -15 -15 -15 -15 -15 -15 -16 -16 -16 -16 -16 -16 -16 -16 -17 -17 -17 -17 -18 -18 -18 -18 -19 -19 -19 -19 -20 -20 -20 -20 -20
-13 -13 -13 -13 -13 -15 -15 -15 -16 -17 -18 -18 -17 -16 -16 -15 -15 -15 -15 -15 -16 -16 -16 -16 -16 -16 -16 -16 -16 -17 -17 -17 -17 -17 -17 -18 -18 -18 -19 -19 -19 -19 -19 -20 -21 -20 -20
-13 -13 -13 -13 -13 -14 -15 -15 -16 -17 -18 -18 -18 -17 -16 -16 -16 -16 -15 -16 -16 -16 -16 -16 -16 -16 -16 -16 -16 -16 -17 -17 -17 -17 -17 -18 -18 -19 -19 -19 -20 -20 -20 -20 -20 -20 -20
-14 -14 -13 -14 -13 -14 -15 -15 -16 -17 -18 -18 -18 -17 -17 -16 -16 -16 -16 -16 -16 -16 -16 -16 -16 -16 -16 -16 -16 -17 -17 -17 -17 -17 -17 -18 -18 -18 -18 -19 -19 -19 -20 -20 -21 -21 -20
-14 -14 -14 -14 -14 -15 -15 -15 -16 -17 -18 -18 -18 -18 -18 -17 -17 -17 -16 -16 -16 -16 -16 -16 -16 -16 -16 -16 -16 -16 -17 -17 -18 -17 -17 -17 -17 -17 -18 -18 -19 -20 -20 -21 -21 -21 -20
-14 -14 -14 -14 -15 -15 -15 -15 -16 -17 -17 -17 -18 -17 -18 -18 -18 -17 -17 -16 -16 -16 -16 -16 -16 -16 -16 -16 -16 -16 -17 -17 -17 -17 -17 -17 -18 -18 -18 -18 -18 -19 -19 -20 -20 -20 -20
-14 -14 -14 -15 -15 -15 -15 -15 -15 -16 -17 -17 -17 -17 -18 -18 -19 -18 -17 -17 -17 -17 -16 -16 -16 -16 -16 -16 -16 -16 -16 -17 -17 -17 -17 -17 -17 -18 -18 -18 -18 -18 -18 -19 -19 -19 -20
-15 -15 -15 -15 -16 -16 -16 -15 -15 -16 -16 -16 -17 -18 -18 -18 -19 -19 -18 -17 -17 -17 -17 -17 -17 -17 -16 -17 -16 -16 -16 -17 -17 -17 -17 -17 -17 -17 -18 -18 -18 -18 -18 -18 -18 -19 -19
-15 -15 -15 -16 -16 -16 -16 -16 -16 -16 -16 -16 -17 -18 -18 -17 -18 -18 -18 -18 -18 -18 -17 -17 -17 -17 -17 -17 -17 -16 -17 -17 -17 -17 -17 -17 -17 -17 -17 -17 -17 -17 -17 -17 -18 -19 -19
-15 -15 -16 -16 -16 -17 -17 -17 -17 -17 -17 -17 -17 -17 -17 -17 -18 -18 -18 -18 -18 -18 -18 -18 -17 -17 -17 -17 -17 -16 -16 -17 -17 -17 -17 -17 -17 -16 -17 -17 -17 -17 -17 -17 -17 -18 -18
-16 -16 -16 -16 -17 -17 -17 -18 -18 -18 -18 -18 -18 -18 -17 -16 -17 -17 -18 -18 -18 -18 -18 -18 -19 -18 -18 -17 -17 -16 -16 -17 -17 -17 -17 -17 -17 -16 -16 -17 -17 -17 -17 -17 -17 -18 -18
-16 -16 -16 -16 -17 -17 -17 -18 -18 -18 -18 -18 -18 -18 -18 -17 -17 -18 -17 -18 -18 -18 -18 -18 -18 -18 -18 -18 -17 -16 -16 -16 -16 -17 -17 -17 -17 -17 -16 -17 -17 -17 -17 -17 -17 -18 -18
-16 -16 -16 -17 -17 -18 -18 -18 -18 -18 -18 -18 -18 -18 -18 -17 -17 -18 -18 -18 -18 -18 -17 -18 -18 -18 -18 -18 -17 -17 -16 -17 -16 -17 -17 -17 -17 -17 -16 -17 -17 -17 -17 -17 -17 -17 -17
-17 -17 -17 -17 -17 -18 -18 -19 -19 -19 -19 -18 -18 -18 -18 -18 -17 -17 -18 -17 -18 -18 -17 -17 -17 -17 -18 -18 -17 -17 -17 -16 -16 -17 -17 -17 -17 -17 -17 -17 -17 -17 -17 -17 -17 -17 -17
-18 -18 -17 -17 -18 -18 -18 -19 -19 -19 -19 -18 -18 -19 -19 -17 -16 -17 -17 -17 -17 -18 -18 -17 -17 -17 -17 -17 -17 -17 -17 -17 -17 -16 -17 -17 -17 -17 -17 -17 -17 -16 -16 -17 -17 -17 -17
Height
5824 5823 5822 5821 5819 5817 5815 5814 5812 5811 5809 5808 5807 5806 5805 5802 5800 5797 5795 5792 5790 5787 5785 5782 5779 5776 5773 5770 5767 5762 5755 5749 5742 5735 5729 5722 5716 5711 5707 5703 5700 5697 5698 5698 5699 5701 5702
5823 5821 5820 5819 5817 5816 5814 5812 5811 5810 5808 5807 5805 5804 5802 5800 5798 5796 5793 5790 5787 5784 5781 5778 5775 5772 5769 5766 5760 5754 5748 5741 5733 5725 5718 5712 5706 5699 5695 5691 5689 5689 5687 5688 5688 5690 5690
5821 5819 5818 5818 5816 5815 5813 5811 5810 5809 5807 5805 5803 5801 5800 5798 5795 5793 5791 5788 5785 5781 5778 5775 5771 5767 5764 5761 5755 5749 5743 5735 5727 5719 5712 5705 5699 5692 5687 5685 5682 5681 5682 5680 5676 5678 5679
5816 5815 5814 5813 5813 5813 5811 5810 5808 5806 5805 5803 5802 5800 5797 5795 5793 5790 5788 5785 5782 5779 5775 5772 5767 5762 5760 5755 5751 5745 5738 5730 5723 5714 5708 5701 5694 5686 5682 5680 5677 5676 5674 5674 5670 5669 5670
5812 5811 5810 5810 5809 5808 5808 5807 5806 5805 5803 5801 5799 5798 5795 5793 5791 5788 5786 5783 5779 5776 5772 5769 5764 5760 5756 5751 5746 5741 5734 5726 5720 5713 5706 5697 5690 5683 5679 5677 5675 5672 5670 5668 5666 5663 5662
5808 5807 5806 5805 5804 5804 5803 5802 5802 5801 5800 5798 5796 5794 5792 5790 5788 5786 5783 5780 5777 5773 5769 5766 5761 5759 5753 5747 5743 5737 5729 5722 5715 5708 5702 5695 5686 5681 5676 5673 5671 5668 5665 5662 5660 5657 5656
5802 5802 5802 5801 5799 5798 5797 5797 5796 5795 5795 5794 5793 5791 5789 5786 5784 5782 5780 5778 5777 5773 5766 5763 5759 5754 5749 5744 5739 5733 5725 5719 5712 5706 5700 5692 5684 5677 5672 5669 5666 5662 5659 5655 5652 5648 5648
5797 5797 5796 5795 5794 5793 5791 5790 5790 5789 5788 5788 5788 5786 5784 5782 5780 5778 5776 5773 5771 5769 5764 5760 5755 5751 5746 5741 5736 5729 5723 5716 5708 5701 5694 5687 5680 5674 5669 5665 5660 5656 5652 5648 5646 5643 5639
5789 5790 5788 5787 5787 5786 5786 5784 5783 5783 5782 5781 5780 5780 5778 5777 5775 5773 5771 5769 5767 5765 5762 5758 5752 5747 5743 5738 5732 5726 5719 5712 5705 5697 5690 5684 5678 5671 5666 5661 5656 5651 5645 5641 5638 5635 5632
5781 5781 5780 5780 5778 5778 5778 5778 5777 5776 5775 5774 5774 5772 5772 5770 5770 5767 5766 5764 5762 5760 5758 5755 5750 5744 5740 5734 5729 5722 5715 5709 5702 5695 5688 5682 5675 5669 5663 5658 5653 5647 5640 5635 5631 5628 5628
5776 5773 5771 5769 5769 5770 5770 5770 5770 5769 5769 5768 5767 5766 5766 5764 5764 5763 5761 5759 5757 5756 5755 5752 5747 5742 5737 5731 5724 5719 5713 5707 5700 5691 5686 5681 5673 5665 5660 5655 5650 5646 5638 5632 5628 5625 5624
5767 5765 5764 5760 5759 5758 5759 5760 5761 5762 5761 5761 5760 5760 5759 5760 5759 5758 5756 5754 5753 5752 5749 5746 5742 5738 5734 5729 5723 5717 5711 5704 5699 5692 5685 5678 5670 5663 5657 5652 5648 5645 5639 5633 5630 5625 5624
5757 5754 5752 5750 5748 5747 5746 5749 5750 5751 5753 5754 5754 5754 5753 5753 5754 5753 5752 5751 5750 5747 5746 5742 5738 5734 5730 5726 5721 5716 5710 5704 5698 5692 5686 5677 5671 5663 5657 5651 5647 5642 5638 5633 5631 5627 5625
5748 5745 5742 5739 5736 5735 5736 5738 5738 5740 5742 5745 5747 5747 5748 5746 5747 5747 5747 5747 5745 5743 5741 5738 5734 5730 5726 5723 5719 5714 5708 5701 5695 5689 5683 5677 5670 5663 5656 5650 5646 5641 5638 5635 5631 5629 5626
5739 5736 5732 5729 5724 5724 5724 5726 5726 5729 5731 5735 5738 5740 5740 5741 5740 5741 5742 5741 5739 5738 5737 5734 5730 5727 5724 5720 5715 5711 5706 5699 5694 5687 5682 5675 5670 5664 5658 5652 5647 5642 5638 5635 5631 5629 5627
5728 5726 5722 5720 5716 5714 5713 5714 5715 5717 5720 5724 5727 5730 5732 5732 5734 5735 5737 5736 5733 5732 5731 5729 5726 5723 5720 5716 5712 5707 5702 5698 5692 5685 5680 5676 5670 5664 5659 5652 5647 5642 5638 5634 5630 5627 5625
5719 5717 5715 5712 5708 5706 5703 5703 5704 5706 5709 5712 5716 5720 5723 5723 5726 5729 5730 5731 5728 5727 5725 5725 5722 5719 5716 5713 5709 5705 5701 5697 5692 5686 5680 5673 5669 5665 5657 5652 5648 5644 5638 5633 5630 5626 5622
5711 5709 5706 5703 5700 5697 5695 5693 5694 5696 5699 5700 5706 5709 5713 5716 5718 5720 5723 5722 5723 5721 5720 5719 5717 5715 5713 5709 5707 5703 5699 5693 5689 5685 5680 5674 5668 5663 5658 5652 5647 5642 5636 5631 5627 5624 5620
5700 5699 5697 5693 5691 5688 5688 5686 5684 5686 5688 5690 5693 5696 5702 5706 5709 5712 5714 5714 5715 5716 5714 5714 5712 5710 5709 5706 5703 5700 5697 5693 5687 5683 5678 5674 5666 5660 5656 5652 5645 5638 5632 5627 5623 5619 5617
5689 5690 5689 5686 5684 5681 5679 5678 5677 5677 5678 5680 5682 5684 5693 5696 5700 5702 5704 5706 5707 5709 5708 5707 5707 5704 5705 5702 5698 5697 5693 5691 5687 5682 5678 5674 5668 5662 5656 5651 5644 5638 5633 5627 5621 5617 5614
5680 5680 5679 5676 5675 5675 5672 5671 5670 5668 5668 5669 5672 5675 5680 5686 5689 5691 5694 5697 5699 5700 5701 5699 5701 5698 5699 5698 5695 5693 5691 5689 5686 5681 5677 5673 5669 5663 5656 5651 5645 5639 5634 5627 5621 5616 5613
5668 5668 5668 5668 5667 5667 5664 5661 5662 5662 5661 5661 5663 5665 5669 5674 5678 5680 5682 5688 5689 5690 5691 5693 5693 5692 5692 5691 5689 5689 5686 5682 5681 5680 5676 5672 5668 5664 5658 5652 5647 5641 5636 5630 5624 5618 5614
5658 5657 5657 5657 5658 5657 5657 5655 5653 5653 5654 5653 5655 5658 5659 5661 5667 5670 5675 5675 5679 5680 5682 5683 5684 5685 5685 5684 5682 5683 5682 5679 5677 5675 5672 5669 5666 5663 5658 5653 5648 5644 5638 5633 5628 5623 5618
5645 5645 5645 5645 5645 5645 5646 5646 5645 5644 5645 5646 5646 5648 5649 5650 5654 5659 5661 5664 5666 5670 5671 5673 5674 5676 5678 5676 5676 5676 5676 5675 5673 5671 5670 5666 5663 5661 5658 5654 5650 5645 5640 5635 5631 5627 5622
5631 5631 5631 5632 5632 5633 5633 5633 5634 5633 5634 5635 5636 5637 5639 5640 5643 5646 5651 5653 5655 5657 5660 5662 5665 5666 5666 5666 5667 5669 5671 5670 5668 5667 5666 5663 5661 5659 5656 5654 5650 5646 5642 5638 5634 5631 5628
5617 5618 5618 5618 5618 5618 5619 5620 5621 5621 5621 5622 5625 5626 5627 5629 5632 5635 5637 5641 5644 5647 5649 5651 5653 5655 5657 5657 5657 5658 5662 5662 5663 5662 5661 5660 5658 5657 5654 5652 5649 5646 5643 5640 5637 5635 5631
5604 5603 5603 5602 5602 5602 5604 5604 5605 5605 5606 5607 5610 5613 5614 5616 5618 5622 5625 5627 5630 5633 5636 5641 5643 5643 5646 5647 5647 5650 5653 5654 5654 5655 5656 5655 5654 5653 5651 5650 5649 5646 5643 5641 5639 5640 5635
5588 5589 5589 5587 5587 5587 5587 5588 5589 5589 5590 5591 5594 5595 5598 5601 5604 5607 5612 5614 5619 5620 5622 5626 5629 5632 5633 5636 5637 5640 5642 5645 5646 5648 5648 5648 5648 5648 5647 5647 5647 5644 5642 5641 5640 5637 5636
5573 5573 5573 5572 5571 5571 5571 5571 5571 5572 5572 5573 5577 5576 5578 5582 5590 5592 5598 5601 5601 5603 5606 5609 5614 5617 5620 5624 5627 5627 5632 5634 5637 5639 5641 5642 5643 5642 5643 5642 5641 5640 5639 5638 5637 5636 5635
Wind_Speed
14 14 14 14 14 13 13 14 15 15 14 14 15 18 18 18 18 18 17 17 16 16 16 16 17 19 22 24 25 30 35 39 42 44 44 44 44 43 42 39 40 43 42 44 48 50 62
17 17 16 16 16 15 13 12 12 13 14 15 16 17 18 17 17 18 18 17 17 16 16 17 17 20 22 25 28 33 37 42 44 44 44 43 42 43 39 34 32 31 36 35 37 38 43
22 21 19 19 18 16 15 13 12 13 13 14 14 15 16 16 17 17 18 19 19 19 18 17 17 21 23 26 29 32 37 41 43 41 41 40 41 38 32 28 27 27 27 30 34 34 35
21 22 22 21 21 20 16 15 13 11 11 12 12 12 14 15 16 18 19 20 20 20 20 20 19 20 22 26 28 32 37 40 39 39 38 37 37 33 28 27 24 25 24 23 26 33 34
19 20 22 24 23 22 21 20 18 17 15 14 14 14 14 16 17 18 19 20 21 22 22 22 23 21 23 26 28 31 36 39 35 34 35 39 37 32 26 23 24 25 25 23 23 26 32
23 22 22 23 25 25 25 24 24 23 22 21 20 19 19 19 19 20 21 21 23 25 23 23 23 23 23 24 26 29 34 39 35 34 35 39 40 34 27 24 24 28 28 28 28 28 26
28 26 25 24 24 25 26 27 27 27 27 27 27 25 23 23 22 22 22 22 23 23 27 24 25 27 26 24 26 29 33 37 36 33 34 38 36 33 25 26 31 26 26 25 26 32 32
33 30 30 29 28 27 27 27 28 29 28 29 30 28 27 27 26 25 25 24 23 25 27 24 25 26 28 25 24 27 32 36 37 36 35 38 33 27 24 28 29 27 27 29 25 26 33
38 36 35 33 32 31 30 29 27 27 27 29 29 30 29 30 30 29 27 25 24 23 25 24 24 25 28 28 26 27 31 35 37 37 33 35 30 25 25 26 27 27 32 31 32 30 27
36 39 40 41 38 35 35 33 29 27 27 26 25 26 27 26 28 29 28 27 24 23 23 25 26 25 28 31 26 28 31 34 38 38 34 34 31 25 25 24 26 27 27 29 31 27 24
37 36 37 43 44 42 39 37 33 28 28 25 23 23 24 24 21 22 24 24 23 21 23 24 25 27 26 31 33 30 31 32 36 36 34 34 33 32 27 25 25 26 23 26 22 16 19
41 44 45 45 44 45 44 40 38 35 30 26 22 20 18 18 15 17 17 18 20 21 23 23 24 25 24 27 31 32 30 33 33 32 30 33 35 31 29 23 23 23 20 16 18 13 7
43 45 45 46 48 46 45 43 43 42 35 28 26 20 18 17 17 16 16 18 19 18 19 20 22 24 28 26 28 32 29 28 31 31 30 32 35 33 29 25 20 21 21 19 12 17 9
41 39 38 44 46 47 43 39 46 44 38 32 28 25 24 19 18 18 16 18 18 19 19 20 21 23 26 28 25 29 32 30 31 32 30 32 35 34 34 25 19 19 18 17 16 16 13
39 38 35 39 41 45 42 40 45 46 44 32 32 28 26 25 21 19 18 16 18 20 19 21 21 21 25 28 29 27 30 32 31 31 32 32 31 32 29 30 27 18 19 19 15 13 13
35 35 33 36 38 35 35 38 41 44 46 39 33 33 30 30 25 23 19 17 20 21 19 21 22 22 23 26 30 29 30 31 33 32 31 31 29 32 30 30 28 22 21 20 17 16 14
33 33 36 36 37 35 33 36 38 42 44 45 35 32 33 33 30 27 23 21 20 20 21 20 21 23 23 23 27 29 28 29 31 32 34 32 29 28 32 33 33 26 26 23 21 18 19
36 35 38 36 37 36 34 34 37 41 42 49 45 41 35 33 34 30 25 25 24 21 21 20 21 23 24 24 23 26 26 30 30 32 33 33 32 28 27 29 30 27 26 24 21 20 19
37 37 39 38 36 36 35 33 34 38 44 50 46 45 41 36 34 30 29 29 27 23 22 22 22 24 25 25 24 24 26 25 30 31 32 33 34 33 31 32 32 29 27 25 23 18 14
38 36 38 39 38 36 36 33 31 36 40 43 47 47 41 37 35 33 32 32 29 25 25 26 23 26 25 23 25 23 27 25 25 29 30 32 31 31 33 31 31 27 29 28 22 21 16
38 37 37 38 40 39 36 32 33 33 34 38 45 47 43 42 33 34 34 33 30 29 26 28 25 28 25 23 27 23 21 22 23 24 27 29 29 28 31 30 27 27 28 27 26 23 15
40 39 39 39 40 40 40 38 32 33 31 34 38 41 44 40 40 36 38 34 32 31 31 28 28 28 25 24 28 27 23 23 22 25 24 25 28 27 26 25 24 22 24 24 24 18 14
44 41 41 40 41 43 42 38 37 36 35 32 33 36 35 34 36 42 37 41 37 32 32 31 31 28 28 28 27 27 26 22 23 23 25 25 25 25 24 22 22 18 19 19 21 23 21
41 44 45 43 42 45 46 42 40 37 37 37 33 34 35 34 34 33 35 40 45 38 38 35 33 32 29 31 30 28 29 23 21 24 24 23 24 24 21 20 18 18 17 17 18 20 21
42 42 43 46 46 46 48 47 45 43 41 41 42 40 37 36 35 34 33 34 37 40 41 39 36 33 32 32 33 29 27 25 23 21 21 25 21 22 20 19 16 14 16 15 14 14 14
49 45 45 47 49 49 50 49 49 47 47 46 46 48 46 43 40 41 38 37 35 34 33 40 43 38 36 35 34 34 30 29 27 20 19 21 23 19 19 18 15 13 11 12 12 10 8
50 48 48 50 52 51 50 50 51 50 50 50 50 50 50 49 45 45 44 44 43 43 40 39 40 40 40 39 38 35 32 31 30 23 20 20 19 21 18 17 13 12 10 9 9 9 7
54 53 52 54 54 53 52 50 52 52 52 52 52 55 55 54 49 48 49 47 46 47 45 43 43 44 43 41 42 38 36 33 33 28 24 22 21 20 21 18 16 14 11 8 6 6 5
56 57 57 56 54 54 55 55 54 55 56 56 56 60 61 58 50 51 50 50 52 54 53 52 49 48 49 46 44 44 40 37 35 32 27 26 23 21 22 24 20 19 15 13 12 9 6
Wind_Direction
304 305 306 307 310 315 320 319 317 316 318 319 320 321 324 326 326 322 322 324 324 323 321 326 329 331 332 335 335 337 339 340 336 334 331 327 321 313 304 295 284 276 268 262 258 251 246
305 305 303 304 306 310 315 319 318 317 316 317 318 319 323 325 327 327 322 323 327 327 326 330 331 331 332 333 338 342 344 342 341 338 336 331 323 316 312 302 290 278 275 269 265 260 253
308 307 306 308 308 308 309 312 312 312 313 314 318 324 330 332 330 331 332 327 329 329 332 333 334 334 334 334 339 342 345 344 341 342 341 336 330 327 320 308 297 287 276 271 263 260 255
300 300 300 299 298 299 300 303 307 310 311 315 322 328 331 336 339 337 336 337 332 331 334 337 337 337 335 335 340 343 346 341 344 347 347 344 336 329 317 309 303 290 288 278 267 261 256
303 298 296 297 293 290 290 293 295 298 300 305 313 320 326 330 331 335 340 341 336 333 334 339 339 341 337 337 338 344 345 343 343 347 346 342 332 325 314 309 307 302 296 291 284 276 263
300 297 294 293 290 290 287 285 287 290 291 295 298 304 309 313 319 326 332 334 341 338 333 336 343 341 341 337 338 345 343 345 341 342 344 342 330 324 312 307 308 306 298 291 285 277 272
292 293 294 295 292 289 286 284 284 284 286 289 293 299 303 307 311 315 320 328 333 337 338 338 344 345 347 339 338 344 345 347 342 332 337 342 337 331 318 315 319 312 314 305 286 277 271
289 289 290 289 290 290 287 286 283 282 285 285 288 292 295 297 301 306 312 317 325 335 338 341 342 347 348 342 339 342 347 348 347 338 335 342 339 333 322 318 317 315 307 311 300 286 277
283 285 285 283 283 284 286 287 286 284 284 284 284 287 290 293 295 298 300 307 315 325 334 342 341 346 349 347 339 343 350 350 351 348 340 340 337 328 322 319 319 319 305 303 306 289 295
285 283 281 282 280 280 283 283 284 285 281 282 284 284 287 290 295 297 299 299 308 316 329 336 345 343 347 348 347 343 348 350 355 356 350 345 338 337 330 327 330 328 325 315 307 293 298
295 290 284 280 277 279 278 278 278 279 282 277 277 288 286 288 296 301 305 303 297 310 324 332 340 345 348 349 349 344 346 350 357 359 355 355 351 344 337 325 328 342 346 348 333 314 317
292 291 290 287 284 282 275 274 272 275 276 275 278 283 284 286 299 311 318 319 306 305 316 328 335 343 347 348 350 346 345 349 357 1 357 354 354 348 345 333 320 334 342 345 350 345 359
296 292 285 284 283 280 278 276 267 266 269 273 272 274 277 285 297 306 318 327 321 320 322 323 330 339 350 349 349 348 347 347 353 356 359 357 357 354 345 339 334 327 337 349 327 359 1
295 294 289 282 280 279 278 277 273 262 255 266 270 263 271 275 285 297 309 315 315 323 326 325 326 336 342 344 344 349 352 350 349 354 355 2 358 1 3 354 344 339 334 343 347 356 3
290 293 294 289 286 278 277 274 274 264 262 256 260 265 263 265 270 283 295 306 306 316 325 327 327 332 338 345 342 352 352 352 352 351 354 357 359 2 1 359 352 336 338 335 331 339 356
298 300 299 298 295 282 278 276 273 266 257 246 257 254 261 264 265 272 278 293 296 308 316 329 333 331 335 343 342 346 351 352 356 353 348 350 356 357 354 350 347 344 339 330 323 316 305
299 303 302 302 297 293 286 279 272 267 258 261 245 254 256 260 265 267 274 280 283 295 305 319 326 332 331 334 342 345 347 349 351 355 353 346 348 346 344 344 350 354 359 350 338 315 299
301 304 303 303 299 298 295 284 276 271 253 263 247 243 249 258 261 268 269 270 275 281 293 306 314 324 335 330 336 336 344 346 350 350 353 350 349 356 347 343 348 346 340 342 331 326 300
296 299 300 301 296 295 294 289 275 270 259 261 260 253 244 253 258 262 266 265 267 274 284 294 302 309 320 328 326 334 334 345 345 346 350 351 351 355 355 353 352 346 342 340 335 329 318
299 299 299 299 295 291 293 292 284 276 267 266 266 260 244 249 252 256 259 262 266 269 276 283 290 298 308 321 323 328 331 344 341 340 345 348 346 349 349 352 350 349 345 347 345 335 326
298 300 297 293 291 285 283 283 283 279 272 268 265 261 255 241 249 249 256 260 263 265 265 272 282 288 300 311 312 320 315 321 341 334 339 344 346 348 345 350 349 351 353 350 348 343 341
295 295 292 291 288 282 281 281 275 278 273 270 267 258 257 255 246 250 253 253 258 262 263 267 275 279 291 300 305 313 315 316 325 337 332 341 343 347 344 349 352 352 355 357 352 351 355
294 292 290 287 284 280 274 273 274 275 276 270 268 268 261 257 254 253 252 257 255 258 263 265 268 273 282 287 295 302 308 311 318 323 330 333 338 342 346 351 353 357 3 2 359 358 2
290 293 290 288 282 279 276 269 268 268 269 269 266 264 264 264 261 259 254 254 258 257 258 259 265 269 274 280 284 291 300 302 304 317 324 324 330 334 345 344 352 0 1 12 9 1 357
290 289 289 287 281 276 273 269 267 266 263 264 266 264 262 261 264 260 261 255 258 261 259 261 256 264 273 274 278 280 288 297 298 301 310 322 317 323 336 340 340 349 357 3 11 21 17
290 289 285 282 282 278 273 269 265 264 264 263 260 261 261 261 261 264 261 260 260 263 265 262 255 254 268 272 273 276 280 288 290 290 300 299 316 310 317 330 331 342 347 358 2 7 28
287 287 285 282 280 277 272 268 266 265 263 263 265 263 263 262 260 262 263 262 258 259 260 259 261 264 261 265 269 269 271 278 281 284 287 291 306 311 298 307 309 320 335 350 9 11 11
287 286 284 280 278 276 273 268 266 265 265 266 267 267 265 262 258 257 258 262 264 263 260 257 256 260 260 260 264 266 265 267 273 279 277 282 294 302 305 286 290 290 295 306 319 348 11
284 284 281 277 274 272 271 269 266 265 265 266 266 266 264 262 258 257 257 257 258 258 260 260 259 259 262 259 257 261 262 261 264 270 273 275 279 293 298 286 274 285 287 287 287 274 254